This demonstration page uses our WeatherBlox Daily Observations layout. Learn more.

Left ArrowRight Arrow

34.74481, -87.66753

Hourly Observations for July 23, 2016

Temp ( °F °C ) Dew Point ( °F °C ) Humidity (%) Winds ( mph kmh ) Pressure ( in mb ) Visibility ( mi km ) Precip ( " mm )
12:53 am 00:53 Clear 76 24.4 74 23.3 94 94 Calm 30.00 1016 7 11 0.00 0.00
1:53 am 01:53 Clear with Mist and Fog 75 23.9 73 22.8 94 94 S 3 6 29.99 1016 6 10 0.00 0.00
2:53 am 02:53 Clear 75 23.9 72 22.2 90 90 Calm 29.98 1015 9 14 0.00 0.00
3:53 am 03:53 Clear 74 23.3 71 21.7 91 91 Calm 29.98 1015 7 11 0.00 0.00
5:53 am 05:53 Mostly Cloudy with Mist and Fog 74 23.3 72 22.2 94 94 N 3 6 30.00 1016 6 10 0.00 0.00
6:53 am 06:53 Mostly Sunny 76 24.4 72 22.2 88 88 SW 6 9 30.01 1016 9 14 0.00 0.00
7:53 am 07:53 Sunny 78 25.6 74 23.3 87 87 Calm 30.01 1016 9 14 0.00 0.00
8:53 am 08:53 Sunny 81 27.2 73 22.8 77 77 Calm 30.01 1016 10 16 0.00 0.00
9:53 am 09:53 Sunny 84 28.9 74 23.3 72 72 Calm 30.00 1016 10 16 0.00 0.00
10:53 am 10:53 Sunny 88 31.1 72 22.2 59 59 S 6 9 30.00 1016 10 16 0.00 0.00
11:53 am 11:53 Sunny 91 32.8 75 23.9 59 59 WSW 7 11 29.99 1016 10 16 0.00 0.00
12:53 pm 12:53 Mostly Sunny 91 32.8 74 23.3 57 57 SW 8 13 29.99 1016 10 16 0.00 0.00
1:53 pm 13:53 Sunny 91 32.8 74 23.3 57 57 SW 10 17 29.97 1015 10 16 0.00 0.00
2:53 pm 14:53 Sunny 93 33.9 74 23.3 54 54 WNW 9 15 29.95 1014 10 16 0.00 0.00
3:53 pm 15:53 Sunny 93 33.9 74 23.3 54 54 VRB 7 11 29.93 1014 10 16 0.00 0.00
4:53 pm 16:53 Sunny 92 33.3 73 22.8 54 54 SW 8 13 29.93 1013 10 16 0.00 0.00
5:53 pm 17:53 Sunny 91 32.8 74 23.3 57 57 SSW 7 11 29.93 1014 10 16 0.00 0.00
6:53 pm 18:53 Sunny 90 32.2 74 23.3 59 59 SSW 5 7 29.93 1014 10 16 0.00 0.00
7:53 pm 19:53 Sunny 85 29.4 76 24.4 75 75 SE 3 6 29.96 1014 10 16 0.00 0.00
8:53 pm 20:53 Partly Cloudy 84 28.9 74 23.3 72 72 ESE 9 15 29.98 1015 10 16 0.00 0.00
9:53 pm 21:53 Clear 81 27.2 70 21.1 69 69 SSE 5 7 29.96 1015 10 16 0.00 0.00
10:53 pm 22:53 Clear 77 25 72 22.2 85 85 E 5 7 29.97 1015 10 16 0.00 0.00
11:53 pm 23:53 Clear 77 25 70 21.1 79 79 Calm 29.98 1015 10 16 0.00 0.00

Powered by AerisWeather